�v������,���r���O(���x),�����t���O,���r���O(���x),�����t���O,��1(���x),�����t���O,�������x,�����t���O
9/1/2004 0:00,27.5,1,53.3,1,26.8,1,27.5,1
9/1/2004 0:15,27,1,49,1,26.8,1,27.5,1
9/1/2004 0:30,26.9,1,48.5,1,26.8,1,27.7,1
9/1/2004 0:45,26.9,1,48.7,1,26.8,1,27.6,1
9/1/2004 1:00,26.9,1,50.4,1,26.7,1,27.7,1
9/1/2004 1:15,27.3,1,52.8,1,26.7,1,27.6,1
9/1/2004 1:30,27.6,1,53.9,1,26.7,1,27.6,1
9/1/2004 1:45,27.7,1,55.2,1,26.7,1,27.6,1
9/1/2004 2:00,27.8,1,56.2,1,26.6,1,27.6,1
9/1/2004 2:15,28,1,57,1,26.6,1,27.6,1
9/1/2004 2:30,28.1,1,57.8,1,26.7,1,27.6,1
9/1/2004 2:45,28.1,1,58.3,1,26.9,1,27.6,1
9/1/2004 3:00,28.2,1,58.9,1,26.8,1,27.6,1
9/1/2004 3:15,28.3,1,59.5,1,26.7,1,27.6,1
9/1/2004 3:30,28.3,1,59.9,1,26.6,1,27.6,1
9/1/2004 3:45,28.3,1,60.3,1,26.6,1,27.6,1
9/1/2004 4:00,28.4,1,60.6,1,26.8,1,27.6,1
9/1/2004 4:15,28.4,1,60.9,1,27.1,1,27.6,1
9/1/2004 4:30,28.5,1,61.2,1,27.2,1,27.6,1
9/1/2004 4:45,28.5,1,61.5,1,27.4,1,27.7,1
9/1/2004 5:00,28.5,1,61.7,1,27.5,1,27.6,1
9/1/2004 5:15,28.6,1,61.9,1,27.6,1,27.7,1
9/1/2004 5:30,28.6,1,62.1,1,27.7,1,27.7,1
9/1/2004 5:45,28.6,1,62.3,1,27.9,1,27.7,1
9/1/2004 6:00,28.7,1,63.5,1,28.1,1,27.7,1
9/1/2004 6:15,28.7,1,63.7,1,28.3,1,27.7,1
9/1/2004 6:30,28.7,1,64,1,28.6,1,27.8,1
9/1/2004 6:45,28.8,1,65.2,1,28.8,1,26.9,1
9/1/2004 7:00,28.8,1,68.5,1,28.9,1,26.9,1
9/1/2004 7:15,28.8,1,68.8,1,28.9,1,26.8,1
9/1/2004 7:30,28.9,1,69.5,1,28.6,1,26.9,1
9/1/2004 7:45,28.8,1,70,1,28.3,1,26.9,1
9/1/2004 8:00,28.9,1,70.3,1,28.1,1,26.9,1
9/1/2004 8:15,28.9,1,69.9,1,28,1,26.9,1
9/1/2004 8:30,29,1,69.2,1,28,1,27,1
9/1/2004 8:45,28.9,1,69,1,28.2,1,27,1
9/1/2004 9:00,29,1,68.3,1,28.5,1,26.7,1
9/1/2004 9:15,29.1,1,68.6,1,28.7,1,26.8,1
9/1/2004 9:30,29.1,1,67.7,1,28.9,1,26.8,1
9/1/2004 9:45,29.1,1,66.2,1,29,1,26.8,1
9/1/2004 10:00,29.2,1,65.7,1,29.1,1,26.8,1
9/1/2004 10:15,29.2,1,65.3,1,29.1,1,26.8,1
9/1/2004 10:30,29.2,1,64.6,1,29.1,1,26.9,1
9/1/2004 10:45,29.2,1,64.1,1,29.1,1,26.9,1
9/1/2004 11:00,29.3,1,63.9,1,29.1,1,26.9,1
9/1/2004 11:15,29.4,1,63.2,1,29.1,1,26.9,1
9/1/2004 11:30,29.4,1,63.1,1,29.1,1,27,1
9/1/2004 11:45,29.6,1,62.9,1,29.2,1,27,1
9/1/2004 12:00,29.6,1,62.8,1,29.2,1,27,1
9/1/2004 12:15,29.7,1,61.9,1,29.3,1,27,1
9/1/2004 12:30,29.8,1,62.4,1,29.3,1,27,1
9/1/2004 12:45,30,1,62.9,1,29.3,1,27,1
9/1/2004 13:00,30.2,1,63.1,1,29.4,1,27.1,1
9/1/2004 13:15,30.3,1,63.4,1,29.5,1,27.1,1
9/1/2004 13:30,30.5,1,64.4,1,29.6,1,27.1,1
9/1/2004 13:45,30.6,1,66.5,1,29.7,1,27.1,1
9/1/2004 14:00,30.7,1,67.7,1,29.8,1,27.2,1
9/1/2004 14:15,30.8,1,68.2,1,29.8,1,27.2,1
9/1/2004 14:30,30.9,1,68.6,1,29.9,1,27.2,1
9/1/2004 14:45,31,1,69.1,1,30,1,27.2,1
9/1/2004 15:00,31,1,69.3,1,30.2,1,27.2,1
9/1/2004 15:15,31.1,1,68.4,1,30.3,1,27.9,1
9/1/2004 15:30,31.1,1,68.4,1,30.3,1,27.9,1
9/1/2004 15:45,31.2,1,68.6,1,30.3,1,27.9,1
9/1/2004 16:00,31,1,68.7,1,30.2,1,27.9,1
9/1/2004 16:15,30.9,1,68.9,1,30.2,1,27.9,1
9/1/2004 16:30,30.9,1,68.6,1,30.2,1,27.9,1
9/1/2004 16:45,30.7,1,69.3,1,30.1,1,27.9,1
9/1/2004 17:00,30.4,1,69.4,1,30,1,27.9,1
9/1/2004 17:15,30.2,1,69.1,1,29.9,1,28,1
9/1/2004 17:30,30.2,1,67.9,1,29.8,1,27.2,1
9/1/2004 17:45,30.6,1,68.4,1,29.6,1,27.1,1
9/1/2004 18:00,30.6,1,68.4,1,29.5,1,27.1,1
9/1/2004 18:15,29.9,1,59,1,29.3,1,27.2,1
9/1/2004 18:30,29.7,1,57.9,1,29.2,1,27.2,1
9/1/2004 18:45,29.5,1,55.9,1,29.2,1,27.2,1
9/1/2004 19:00,29.3,1,52.9,1,29.2,1,27.2,1
9/1/2004 19:15,29,1,50.9,1,29.2,1,27.3,1
9/1/2004 19:30,28.8,1,50,1,29.1,1,27.3,1
9/1/2004 19:45,29,1,53.9,1,28.8,1,27.3,1
9/1/2004 20:00,29,1,54.4,1,28.2,1,27.6,1
9/1/2004 20:15,29.4,1,57.7,1,27.6,1,27.4,1
9/1/2004 20:30,29.5,1,60,1,27.2,1,27.5,1
9/1/2004 20:45,29,1,54,1,27,1,27.5,1
9/1/2004 21:00,28.8,1,51.8,1,27.1,1,27.5,1
9/1/2004 21:15,28.5,1,49.3,1,27,1,27.5,1
9/1/2004 21:30,28.3,1,48,1,26.9,1,27.5,1
9/1/2004 21:45,28.1,1,47.5,1,26.9,1,27.5,1
9/1/2004 22:00,27.9,1,46.9,1,26.9,1,27.6,1
9/1/2004 22:15,27.8,1,46.9,1,26.8,1,27.6,1
9/1/2004 22:30,27.6,1,46.9,1,26.9,1,27.6,1
9/1/2004 22:45,27.5,1,46.9,1,26.8,1,27.6,1
9/1/2004 23:00,27.3,1,46.6,1,26.8,1,27.6,1
9/1/2004 23:15,27.7,1,54.3,1,26.8,1,27.7,1
9/1/2004 23:30,27.8,1,52.7,1,26.8,1,27.7,1
9/1/2004 23:45,27.8,1,51.2,1,26.8,1,27.7,1
9/2/2004 0:00,27.7,1,50,1,26.8,1,27.7,1
9/2/2004 0:15,28.2,1,52.7,1,26.8,1,27.7,1
9/2/2004 0:30,28.7,1,55,1,26.8,1,28,1
9/2/2004 0:45,29,1,57.2,1,26.8,1,28,1
9/2/2004 1:00,29.2,1,59.1,1,27,1,28,1
9/2/2004 1:15,29.3,1,60.5,1,27.3,1,28,1
9/2/2004 1:30,29.4,1,62.2,1,27.6,1,28,1
9/2/2004 1:45,29.5,1,62.8,1,27.8,1,28,1
9/2/2004 2:00,29.5,1,62.8,1,28,1,28,1
9/2/2004 2:15,29.5,1,63.3,1,28.1,1,28,1
9/2/2004 2:30,29.6,1,63.3,1,28.2,1,28,1
9/2/2004 2:45,29.6,1,63.7,1,28.3,1,28,1
9/2/2004 3:00,29.6,1,63.8,1,28.4,1,28,1
9/2/2004 3:15,29.6,1,64.1,1,27.6,1,28,1
9/2/2004 3:30,29.7,1,64.2,1,27.2,1,28,1
9/2/2004 3:45,29.7,1,64.4,1,27,1,28,1
9/2/2004 4:00,29.7,1,64.5,1,26.9,1,28,1
9/2/2004 4:15,29.7,1,64.5,1,27.1,1,28,1
9/2/2004 4:30,29.7,1,64.7,1,27.3,1,28,1
9/2/2004 4:45,29.7,1,64.8,1,27.6,1,28.1,1
9/2/2004 5:00,29.7,1,65.1,1,27.7,1,28.1,1
9/2/2004 5:15,29.7,1,65,1,27.9,1,28.1,1
9/2/2004 5:30,29.8,1,65.1,1,28,1,28.1,1
9/2/2004 5:45,29.8,1,65.1,1,28.3,1,28.1,1
9/2/2004 6:00,29.8,1,65.1,1,28.6,1,28.1,1
9/2/2004 6:15,29.8,1,65.2,1,29,1,28.5,1
9/2/2004 6:30,29.8,1,65.3,1,29.2,1,28.2,1
9/2/2004 6:45,29.9,1,65.5,1,29.4,1,28.2,1
9/2/2004 7:00,29.9,1,65.5,1,29.6,1,27.8,1
9/2/2004 7:15,29.1,1,67,1,29.1,1,27.3,1
9/2/2004 7:30,28.7,1,68.2,1,28.7,1,27.4,1
9/2/2004 7:45,28.7,1,67.9,1,28.6,1,27.2,1
9/2/2004 8:00,28.8,1,66.9,1,28.5,1,27.1,1
9/2/2004 8:15,28.8,1,65.9,1,28.6,1,27.3,1
9/2/2004 8:30,28.9,1,64.2,1,28.6,1,27.2,1
9/2/2004 8:45,29,1,64.4,1,28.7,1,27.2,1
9/2/2004 9:00,29,1,62.8,1,28.8,1,27.4,1
9/2/2004 9:15,29.3,1,63.8,1,29,1,27.4,1
9/2/2004 9:30,29.5,1,64.1,1,29.1,1,27.4,1
9/2/2004 9:45,29.6,1,64.5,1,29.2,1,27.5,1
9/2/2004 10:00,29.6,1,63.3,1,29.4,1,27.5,1
9/2/2004 10:15,29.7,1,62.1,1,29.4,1,27.5,1
9/2/2004 10:30,29.8,1,61.1,1,29.5,1,27.5,1
9/2/2004 10:45,29.8,1,59.9,1,29.6,1,27.5,1
9/2/2004 11:00,29.9,1,60,1,29.7,1,27.5,1
9/2/2004 11:15,30,1,60,1,29.7,1,27.6,1
9/2/2004 11:30,30.1,1,60.6,1,29.7,1,27.6,1
9/2/2004 11:45,30.2,1,60.5,1,29.8,1,27.6,1
9/2/2004 12:00,30.4,1,60,1,29.8,1,27.6,1
9/2/2004 12:15,30.4,1,59.3,1,29.9,1,27.6,1
9/2/2004 12:30,30.6,1,59.8,1,30,1,27.7,1
9/2/2004 12:45,30.7,1,59.8,1,30.1,1,27.7,1
9/2/2004 13:00,30.8,1,58.9,1,30.1,1,27.7,1
9/2/2004 13:15,30.9,1,59.1,1,30.2,1,27.7,1
9/2/2004 13:30,31,1,58.8,1,30.3,1,27.7,1
9/2/2004 13:45,31.2,1,58.5,1,30.3,1,27.7,1
9/2/2004 14:00,31.3,1,58.2,1,30.4,1,27.8,1
9/2/2004 14:15,31.3,1,57.4,1,30.6,1,27.8,1
9/2/2004 14:30,31.2,1,59.5,1,30.6,1,27.8,1
9/2/2004 14:45,31.1,1,60.3,1,30.5,1,28.3,1
9/2/2004 15:00,31.2,1,58.8,1,30.6,1,28.2,1
9/2/2004 15:15,31,1,58.6,1,30.4,1,28.2,1
9/2/2004 15:30,31.2,1,58.9,1,30.2,1,28.2,1
9/2/2004 15:45,31.3,1,58.9,1,30.3,1,28.2,1
9/2/2004 16:00,31.2,1,59,1,30.4,1,28.3,1
9/2/2004 16:15,30.4,1,51.3,1,30.5,1,28.6,1
9/2/2004 16:30,29.9,1,46.2,1,30.5,1,28.1,1
9/2/2004 16:45,29.5,1,43.2,1,30.6,1,28.1,1
9/2/2004 17:00,29.1,1,41.1,1,30.6,1,28.1,1
9/2/2004 17:15,28.9,1,42.5,1,30.5,1,28,1
9/2/2004 17:30,28.9,1,45.4,1,30.4,1,28,1
9/2/2004 17:45,28.7,1,45.2,1,30.3,1,28.1,1
9/2/2004 18:00,28.6,1,45.3,1,30.2,1,28,1
9/2/2004 18:15,28.6,1,47.3,1,29.9,1,28,1
9/2/2004 18:30,28.9,1,51.6,1,29.5,1,27.7,1
9/2/2004 18:45,29.4,1,54.6,1,29.4,1,27.7,1
9/2/2004 19:00,29.1,1,55,1,29.4,1,27.7,1
9/2/2004 19:15,28.9,1,51.7,1,29.3,1,27.7,1
9/2/2004 19:30,28.8,1,50.3,1,29.3,1,27.8,1
9/2/2004 19:45,28.7,1,50.7,1,29.2,1,27.8,1
9/2/2004 20:00,28.9,1,51.7,1,28.2,1,27.8,1
9/2/2004 20:15,28.5,1,48.2,1,27.2,1,27.8,1
9/2/2004 20:30,28.4,1,47.7,1,26.8,1,27.8,1
9/2/2004 20:45,28.3,1,48.4,1,26.6,1,27.8,1
9/2/2004 21:00,28.2,1,49.1,1,26.5,1,28,1
9/2/2004 21:15,28.2,1,48.9,1,26.3,1,28,1
9/2/2004 21:30,28.7,1,51,1,26.4,1,28,1
9/2/2004 21:45,29,1,52,1,26.2,1,28,1
9/2/2004 22:00,29.3,1,53.4,1,26.1,1,28,1
9/2/2004 22:15,29.5,1,54.5,1,26.1,1,28,1
9/2/2004 22:30,29.6,1,55.1,1,26.1,1,28,1
9/2/2004 22:45,29.7,1,55.8,1,26.1,1,28,1
9/2/2004 23:00,29.8,1,56.2,1,26,1,28,1
9/2/2004 23:15,29.9,1,56.8,1,26,1,28.1,1
9/2/2004 23:30,30,1,57.3,1,26,1,28.1,1
9/2/2004 23:45,30.1,1,57.8,1,25.9,1,28.1,1
9/3/2004 0:00,29.6,1,54.6,1,25.9,1,28.1,1
9/3/2004 0:15,29.1,1,48.7,1,25.9,1,28.1,1
9/3/2004 0:30,28.6,1,45.9,1,25.9,1,28.2,1
9/3/2004 0:45,28.3,1,43.8,1,25.8,1,28.2,1
9/3/2004 1:00,28.1,1,45.7,1,25.8,1,28.2,1
9/3/2004 1:15,28.7,1,50.2,1,25.8,1,28.2,1
9/3/2004 1:30,29,1,51.1,1,25.8,1,28.2,1
9/3/2004 1:45,29.3,1,52.6,1,25.8,1,28.2,1
9/3/2004 2:00,29.4,1,53.6,1,25.7,1,28.2,1
9/3/2004 2:15,29.5,1,54.5,1,25.8,1,28.2,1
9/3/2004 2:30,29.6,1,55.4,1,25.7,1,28.2,1
9/3/2004 2:45,29.7,1,56,1,25.7,1,28.2,1
9/3/2004 3:00,29.7,1,56.4,1,25.6,1,28.2,1
9/3/2004 3:15,29.8,1,57,1,25.7,1,28.3,1
9/3/2004 3:30,29.8,1,57.4,1,25.6,1,28.3,1
9/3/2004 3:45,29.9,1,57.8,1,25.6,1,28.3,1
9/3/2004 4:00,29.9,1,58.2,1,25.6,1,28.3,1
9/3/2004 4:15,29.9,1,58.5,1,25.8,1,28.3,1
9/3/2004 4:30,30,1,58.9,1,26.4,1,28.3,1
9/3/2004 4:45,30,1,59.1,1,26.8,1,28.3,1
9/3/2004 5:00,30,1,59.4,1,27.1,1,28.3,1
9/3/2004 5:15,30,1,59.5,1,27.3,1,28.3,1
9/3/2004 5:30,30.1,1,59.7,1,27.4,1,28.4,1
9/3/2004 5:45,30.1,1,59.9,1,27.5,1,28.4,1
9/3/2004 6:00,30.1,1,59.8,1,26.7,1,28.4,1
9/3/2004 6:15,30.1,1,60,1,26.4,1,28.4,1
9/3/2004 6:30,30.1,1,59.9,1,26.5,1,28.4,1
9/3/2004 6:45,30.1,1,58.9,1,26.7,1,27.6,1
9/3/2004 7:00,30,1,59.1,1,26.6,1,27.3,1
9/3/2004 7:15,29.8,1,57.7,1,26.6,1,27.3,1
9/3/2004 7:30,29.6,1,57.5,1,26.9,1,27.3,1
9/3/2004 7:45,29.6,1,57.4,1,27,1,27.3,1
9/3/2004 8:00,29.7,1,57.3,1,27.1,1,27.4,1
9/3/2004 8:15,29.6,1,57.7,1,27.3,1,27.4,1
9/3/2004 8:30,29.6,1,58.1,1,27.3,1,27.4,1
9/3/2004 8:45,29.7,1,58,1,27.2,1,27.4,1
9/3/2004 9:00,29.7,1,58.7,1,27.3,1,27.9,1
9/3/2004 9:15,29.7,1,59.6,1,27.4,1,27.9,1
9/3/2004 9:30,29.8,1,59.6,1,27.7,1,27.9,1
9/3/2004 9:45,29.8,1,59.9,1,28,1,27.9,1
9/3/2004 10:00,29.7,1,59.4,1,28,1,27.7,1
9/3/2004 10:15,29.7,1,59.8,1,28.1,1,27.7,1
9/3/2004 10:30,29.5,1,60.2,1,28,1,27.8,1
9/3/2004 10:45,29.6,1,60.7,1,28.1,1,27.8,1
9/3/2004 11:00,29.2,1,52.3,1,28.4,1,27.8,1
9/3/2004 11:15,28.9,1,49,1,28.8,1,27.8,1
9/3/2004 11:30,29.5,1,53,1,29.1,1,28,1
9/3/2004 11:45,29.7,1,53.6,1,29.4,1,28,1
9/3/2004 12:00,29.8,1,54.3,1,29.5,1,28,1
9/3/2004 12:15,30,1,54.9,1,29.7,1,28,1
9/3/2004 12:30,30.1,1,55.3,1,30,1,28,1
9/3/2004 12:45,30.3,1,55.9,1,30.1,1,28,1
9/3/2004 13:00,30.4,1,56.3,1,30.2,1,28,1
9/3/2004 13:15,30.5,1,56.7,1,30.2,1,28,1
9/3/2004 13:30,30.6,1,57,1,30.2,1,28,1
9/3/2004 13:45,30.8,1,57.3,1,30.2,1,28,1
9/3/2004 14:00,30.9,1,57.6,1,30.2,1,28.1,1
9/3/2004 14:15,31,1,57.8,1,30.2,1,28.1,1
9/3/2004 14:30,30.9,1,58.5,1,30.2,1,28.1,1
9/3/2004 14:45,30.2,1,52.3,1,30.2,1,28.1,1
9/3/2004 15:00,29.8,1,49.1,1,30.2,1,28.1,1
9/3/2004 15:15,29.7,1,49.1,1,30.3,1,28.5,1
9/3/2004 15:30,29.4,1,47.6,1,30.2,1,28.5,1
9/3/2004 15:45,29.2,1,46.7,1,30.2,1,28.5,1
9/3/2004 16:00,29,1,46.9,1,30,1,28.5,1
9/3/2004 16:15,29,1,48.6,1,29.9,1,28.6,1
9/3/2004 16:30,29.3,1,53.4,1,29.8,1,28.6,1
9/3/2004 16:45,29.7,1,58,1,29.7,1,28.6,1
9/3/2004 17:00,29.8,1,59.3,1,29.6,1,28.6,1
9/3/2004 17:15,30,1,60.1,1,29.6,1,28.6,1
9/3/2004 17:30,30.1,1,61,1,29.4,1,28.6,1
9/3/2004 17:45,30.2,1,61.4,1,29.3,1,28.6,1
9/3/2004 18:00,30.4,1,61,1,29.2,1,28.2,1
9/3/2004 18:15,30.5,1,60.9,1,29.1,1,28.2,1
9/3/2004 18:30,29.9,1,56.8,1,29,1,28.2,1
9/3/2004 18:45,29.5,1,51.8,1,28.9,1,28.2,1
9/3/2004 19:00,29.2,1,48.7,1,28.9,1,28.2,1
9/3/2004 19:15,29,1,47.3,1,28.8,1,28.3,1
9/3/2004 19:30,29,1,48.7,1,28.7,1,28.3,1
9/3/2004 19:45,28.7,1,46.6,1,28.7,1,28.3,1
9/3/2004 20:00,28.5,1,45.6,1,28.7,1,28.3,1
9/3/2004 20:15,28.3,1,45.2,1,28.6,1,28.3,1
9/3/2004 20:30,28.2,1,44.9,1,28.6,1,28.3,1
9/3/2004 20:45,28.2,1,46.3,1,28.5,1,28.3,1
9/3/2004 21:00,28.1,1,46.1,1,28.5,1,27.9,1
9/3/2004 21:15,28,1,44.6,1,27.5,1,27.9,1
9/3/2004 21:30,27.9,1,43.6,1,26.9,1,27.9,1
9/3/2004 21:45,28,1,47.9,1,26.6,1,27.9,1
9/3/2004 22:00,28,1,49.2,1,26.4,1,28,1
9/3/2004 22:15,28.1,1,48.1,1,26.4,1,28.2,1
9/3/2004 22:30,28,1,47,1,26.2,1,28.2,1
9/3/2004 22:45,28,1,46.3,1,26.1,1,28.2,1
9/3/2004 23:00,28.3,1,48,1,26.1,1,28.2,1
9/3/2004 23:15,28.1,1,50.8,1,26.1,1,28.2,1
9/3/2004 23:30,28.1,1,50.6,1,26,1,28.2,1
9/3/2004 23:45,28,1,49.5,1,26,1,28.2,1
9/4/2004 0:00,28,1,51.6,1,26,1,28.2,1
9/4/2004 0:15,28.1,1,51.4,1,26,1,28.2,1
9/4/2004 0:30,28.6,1,51,1,25.9,1,28.2,1
9/4/2004 0:45,29,1,51.9,1,26.1,1,28.2,1
9/4/2004 1:00,28.6,1,50.8,1,26.2,1,28.2,1
9/4/2004 1:15,28.2,1,46.2,1,26.3,1,28.2,1
9/4/2004 1:30,28.5,1,46.5,1,26.3,1,28.3,1
9/4/2004 1:45,28.8,1,47.5,1,26.7,1,28.2,1
9/4/2004 2:00,29,1,49.5,1,26.8,1,28.3,1
9/4/2004 2:15,29.2,1,51,1,26.5,1,28.3,1
9/4/2004 2:30,29.3,1,51.6,1,26.4,1,28.3,1
9/4/2004 2:45,29.4,1,52.3,1,26.3,1,28.3,1
9/4/2004 3:00,29.4,1,52.9,1,26.5,1,28.3,1
9/4/2004 3:15,29.5,1,53.4,1,27,1,28.3,1
9/4/2004 3:30,29.6,1,53.8,1,27.3,1,28.3,1
9/4/2004 3:45,29.6,1,54.2,1,27.5,1,28.3,1
9/4/2004 4:00,29.7,1,54.6,1,27.6,1,28.3,1
9/4/2004 4:15,29.7,1,54.9,1,27.7,1,28.3,1
9/4/2004 4:30,29.8,1,55.3,1,27.7,1,28.3,1
9/4/2004 4:45,29.8,1,55.6,1,27.8,1,28.3,1
9/4/2004 5:00,29.8,1,55.9,1,27.8,1,28.3,1
9/4/2004 5:15,29.8,1,56.1,1,27.9,1,28.3,1
9/4/2004 5:30,29.9,1,56.4,1,27.9,1,28.3,1
9/4/2004 5:45,29.9,1,56.7,1,27.9,1,28.4,1
9/4/2004 6:00,29.9,1,56.9,1,28,1,28.4,1
9/4/2004 6:15,29.9,1,57,1,28,1,28.4,1
9/4/2004 6:30,30,1,57.4,1,28,1,28.4,1
9/4/2004 6:45,30,1,57.6,1,28.1,1,28.5,1
9/4/2004 7:00,30,1,58,1,28.1,1,28.5,1
9/4/2004 7:15,30.1,1,58.5,1,28.1,1,28.4,1
9/4/2004 7:30,30.1,1,59,1,28.1,1,28.4,1
9/4/2004 7:45,30.2,1,59.5,1,28.2,1,28.4,1
9/4/2004 8:00,30.2,1,60.2,1,28.4,1,28.4,1
9/4/2004 8:15,30.3,1,61.1,1,28.5,1,28.4,1
9/4/2004 8:30,30.2,1,65.3,1,27.9,1,28.2,1
9/4/2004 8:45,30.3,1,66.3,1,27.6,1,28.2,1
9/4/2004 9:00,30.2,1,66.5,1,27.5,1,28.2,1
9/4/2004 9:15,30,1,67.1,1,27.1,1,28.2,1
9/4/2004 9:30,29.9,1,68.3,1,26.8,1,27.7,1
9/4/2004 9:45,30.1,1,67.6,1,27,1,27.6,1
9/4/2004 10:00,30.1,1,67.6,1,27.2,1,27.7,1
9/4/2004 10:15,30.2,1,67.1,1,27.1,1,27.7,1
9/4/2004 10:30,30.2,1,67.1,1,27.2,1,27.7,1
9/4/2004 10:45,30.3,1,67.2,1,27.3,1,27.7,1
9/4/2004 11:00,30.3,1,67.6,1,27.4,1,27.7,1
9/4/2004 11:15,30,1,68.4,1,27.5,1,28,1
9/4/2004 11:30,29.8,1,68.6,1,27.5,1,27.9,1
9/4/2004 11:45,29.8,1,69.1,1,27.8,1,27.9,1
9/4/2004 12:00,29.8,1,69.5,1,27.9,1,27.9,1
9/4/2004 12:15,29.8,1,69.5,1,27.7,1,27.9,1
9/4/2004 12:30,29.8,1,69.9,1,27.4,1,27.9,1
9/4/2004 12:45,29.8,1,70.6,1,27.6,1,28,1
9/4/2004 13:00,29.8,1,70,1,27.7,1,28,1
9/4/2004 13:15,30,1,71.2,1,27.8,1,28.2,1
9/4/2004 13:30,30,1,70.5,1,27.6,1,27.9,1
9/4/2004 13:45,29.8,1,71.3,1,27.6,1,27.9,1
9/4/2004 14:00,29.6,1,71.9,1,27.6,1,27.9,1
9/4/2004 14:15,29.6,1,71.6,1,27.7,1,28,1
9/4/2004 14:30,29.5,1,71.5,1,27.6,1,28,1
9/4/2004 14:45,29.3,1,72.2,1,27.4,1,27.8,1
9/4/2004 15:00,29.3,1,71.7,1,27.2,1,27.8,1
9/4/2004 15:15,29.3,1,71.5,1,27.2,1,27.9,1
9/4/2004 15:30,29.4,1,71.2,1,27.2,1,27.9,1
9/4/2004 15:45,29.3,1,71.5,1,27.2,1,27.9,1
9/4/2004 16:00,29.5,1,71.1,1,27.3,1,27.9,1
9/4/2004 16:15,29.5,1,70.9,1,27.5,1,28.2,1
9/4/2004 16:30,29.6,1,71.1,1,27.7,1,28.2,1
9/4/2004 16:45,29.7,1,71.1,1,27.8,1,28.2,1
9/4/2004 17:00,29.7,1,72.1,1,27.8,1,28.2,1
9/4/2004 17:15,29.7,1,72.4,1,27.9,1,28.2,1
9/4/2004 17:30,29.8,1,71.5,1,27.9,1,28.2,1
9/4/2004 17:45,29.8,1,70.8,1,27.8,1,28.1,1
9/4/2004 18:00,29.2,1,58.9,1,27.8,1,28.1,1
9/4/2004 18:15,28.8,1,55.5,1,27.8,1,28.1,1
9/4/2004 18:30,28.7,1,54.2,1,27.7,1,28.1,1
9/4/2004 18:45,28.6,1,54,1,27.7,1,28.1,1
9/4/2004 19:00,28.6,1,55.1,1,27.7,1,27.8,1
9/4/2004 19:15,28.6,1,57.4,1,27.7,1,27.8,1
9/4/2004 19:30,28.5,1,55.4,1,27.6,1,27.8,1
9/4/2004 19:45,28.5,1,55.3,1,27.6,1,27.8,1
9/4/2004 20:00,28.3,1,54.4,1,27.6,1,27.9,1
9/4/2004 20:15,28.5,1,56.6,1,27.5,1,27.9,1
9/4/2004 20:30,28.2,1,53.8,1,27.2,1,27.8,1
9/4/2004 20:45,28.5,1,53.9,1,26.8,1,27.8,1
9/4/2004 21:00,28.8,1,55.4,1,26.4,1,27.8,1
9/4/2004 21:15,29.1,1,56.9,1,26.1,1,27.9,1
9/4/2004 21:30,29.3,1,58.2,1,25.9,1,27.9,1
9/4/2004 21:45,29.5,1,59.4,1,25.9,1,27.9,1
9/4/2004 22:00,29,1,55.8,1,25.7,1,27.9,1
9/4/2004 22:15,28.6,1,51.1,1,25.6,1,27.9,1
9/4/2004 22:30,28.4,1,47.3,1,25.6,1,27.9,1
9/4/2004 22:45,28.1,1,46.6,1,25.7,1,27.9,1
9/4/2004 23:00,28.5,1,48.2,1,25.6,1,28.1,1
9/4/2004 23:15,28.8,1,50.4,1,25.6,1,28.1,1
9/4/2004 23:30,29,1,52.3,1,25.5,1,28.1,1
9/4/2004 23:45,29.2,1,53.9,1,25.5,1,28.1,1
9/5/2004 0:00,29.3,1,55.1,1,25.7,1,28.1,1
9/5/2004 0:15,29.4,1,56.2,1,26.2,1,28.1,1
9/5/2004 0:30,29.4,1,57,1,26.5,1,28.1,1
9/5/2004 0:45,29.5,1,57.6,1,26.7,1,28.1,1
9/5/2004 1:00,29.5,1,58.2,1,26.8,1,28.1,1
9/5/2004 1:15,29.5,1,58.9,1,26.9,1,28.2,1
9/5/2004 1:30,29.5,1,59.8,1,27,1,28,1
9/5/2004 1:45,29.6,1,60.7,1,27,1,28,1
9/5/2004 2:00,29.6,1,61.3,1,27.1,1,28,1
9/5/2004 2:15,29.6,1,61.8,1,27.1,1,28,1
9/5/2004 2:30,29.6,1,62.3,1,27,1,28,1
9/5/2004 2:45,29.6,1,62.6,1,26.5,1,28,1
9/5/2004 3:00,29.6,1,62.8,1,26.2,1,28.1,1
9/5/2004 3:15,29.6,1,63.3,1,25.9,1,28.1,1
9/5/2004 3:30,29.6,1,63.4,1,25.8,1,28.1,1
9/5/2004 3:45,29.6,1,63.5,1,26.2,1,28.1,1
9/5/2004 4:00,29.6,1,63.7,1,26.5,1,28.1,1
9/5/2004 4:15,29.6,1,63.6,1,26.7,1,28.1,1
9/5/2004 4:30,29.6,1,63.6,1,26.7,1,28.1,1
9/5/2004 4:45,29.6,1,64.1,1,26.8,1,28.2,1
9/5/2004 5:00,29.5,1,64.1,1,26.8,1,28.2,1
9/5/2004 5:15,29.5,1,63.9,1,26.9,1,28.2,1
9/5/2004 5:30,29.5,1,63.9,1,26.9,1,28.2,1
9/5/2004 5:45,29.5,1,63.9,1,26.6,1,28.2,1
9/5/2004 6:00,29.5,1,64,1,26.2,1,28.2,1
9/5/2004 6:15,29.5,1,64,1,26.1,1,28.2,1
9/5/2004 6:30,29.5,1,63.9,1,25.9,1,28.2,1
9/5/2004 6:45,29.5,1,63.9,1,25.9,1,28.2,1
9/5/2004 7:00,29.5,1,64,1,25.9,1,28.2,1
9/5/2004 7:15,29.5,1,63.9,1,26.1,1,28.3,1
9/5/2004 7:30,29.5,1,64.2,1,26.4,1,28.4,1
9/5/2004 7:45,29.6,1,64.5,1,26.6,1,27.9,1
9/5/2004 8:00,29.7,1,64.9,1,26.6,1,28,1
9/5/2004 8:15,29.3,1,62.7,1,26.3,1,27.2,1
9/5/2004 8:30,29.1,1,62.5,1,25.6,1,27.3,1
9/5/2004 8:45,29,1,62.3,1,25.1,1,27.4,1
9/5/2004 9:00,28.7,1,63.6,1,24.4,1,27.4,1
9/5/2004 9:15,28.6,1,64,1,24.2,1,27.4,1
9/5/2004 9:30,28.6,1,65.1,1,24.4,1,27.4,1
9/5/2004 9:45,28.6,1,64.1,1,24.4,1,27.4,1
9/5/2004 10:00,28.6,1,64.3,1,25.1,1,27.4,1
9/5/2004 10:15,28.6,1,64.3,1,25.8,1,27.5,1
9/5/2004 10:30,28.5,1,64.6,1,26.1,1,27.7,1
9/5/2004 10:45,28.6,1,64.6,1,26.1,1,27,1
9/5/2004 11:00,28.7,1,64.2,1,26.2,1,27.1,1
9/5/2004 11:15,28.8,1,64.1,1,26.3,1,27.1,1
9/5/2004 11:30,28.8,1,64.1,1,26.3,1,27.1,1
9/5/2004 11:45,28.9,1,64.1,1,26.3,1,27.1,1
9/5/2004 12:00,28.9,1,64.2,1,26.2,1,27.1,1
9/5/2004 12:15,28.9,1,64.3,1,26.3,1,27.1,1
9/5/2004 12:30,29,1,64.4,1,26.3,1,27.2,1
9/5/2004 12:45,29,1,64.4,1,26.3,1,27.2,1
9/5/2004 13:00,29,1,64.6,1,26.3,1,27.2,1
9/5/2004 13:15,29,1,64.6,1,26.3,1,27.2,1
9/5/2004 13:30,29,1,64.6,1,26.3,1,27.2,1
9/5/2004 13:45,29.1,1,64.5,1,26.3,1,27.2,1
9/5/2004 14:00,29.1,1,64.5,1,26.5,1,27.3,1
9/5/2004 14:15,29.1,1,64.6,1,26.6,1,27.3,1
9/5/2004 14:30,29.1,1,64.6,1,26.7,1,27.3,1
9/5/2004 14:45,29.2,1,64.6,1,26.8,1,27.3,1
9/5/2004 15:00,29.2,1,64.7,1,26.8,1,27.3,1
9/5/2004 15:15,29.2,1,64.7,1,26.8,1,27.3,1
9/5/2004 15:30,29.2,1,64.7,1,26.8,1,27.3,1
9/5/2004 15:45,29.2,1,64.7,1,26.8,1,27.4,1
9/5/2004 16:00,29.2,1,64.7,1,26.9,1,27.4,1
9/5/2004 16:15,29.2,1,64.8,1,26.9,1,27.4,1
9/5/2004 16:30,29.2,1,64.8,1,26.8,1,27.4,1
9/5/2004 16:45,29.2,1,64.9,1,26.7,1,27.4,1
9/5/2004 17:00,29.2,1,64.9,1,26.7,1,27.5,1
9/5/2004 17:15,29.2,1,65,1,26.6,1,27.5,1
9/5/2004 17:30,29.2,1,65.1,1,26.5,1,27.5,1
9/5/2004 17:45,29.1,1,65,1,26.5,1,27.5,1
9/5/2004 18:00,29.1,1,65.1,1,26.4,1,27.5,1
9/5/2004 18:15,29.1,1,65.2,1,26.4,1,27.5,1
9/5/2004 18:30,29.1,1,65.2,1,26.3,1,27.5,1
9/5/2004 18:45,29.1,1,65.2,1,26.3,1,27.6,1
9/5/2004 19:00,29.1,1,65.2,1,26.3,1,27.6,1
9/5/2004 19:15,29.1,1,65.2,1,26.2,1,27.6,1
9/5/2004 19:30,29.1,1,65.3,1,26.2,1,27.6,1
9/5/2004 19:45,29.1,1,65.3,1,26.2,1,27.6,1
9/5/2004 20:00,29,1,65.3,1,26.2,1,27.6,1
9/5/2004 20:15,29,1,65.6,1,26.2,1,27.5,1
9/5/2004 20:30,28.5,1,58.4,1,26.1,1,26.8,1
9/5/2004 20:45,28.3,1,57.3,1,26.3,1,27,1
9/5/2004 21:00,28,1,54.6,1,26.3,1,27,1
9/5/2004 21:15,28,1,57.3,1,26.4,1,27,1
9/5/2004 21:30,28,1,55.4,1,26.2,1,27,1
9/5/2004 21:45,27.9,1,53,1,26.2,1,27,1
9/5/2004 22:00,27.8,1,52.4,1,26.2,1,27.1,1
9/5/2004 22:15,27.8,1,55.2,1,26.1,1,27.1,1
9/5/2004 22:30,28.2,1,57,1,26.1,1,27.1,1
9/5/2004 22:45,28.4,1,58.5,1,26,1,27.4,1
9/5/2004 23:00,28.6,1,60,1,26.1,1,27.4,1
9/5/2004 23:15,28.4,1,59.8,1,26,1,27.4,1
9/5/2004 23:30,28.2,1,55.8,1,26.1,1,27.4,1
9/5/2004 23:45,27.9,1,53.6,1,26.2,1,27.4,1
9/6/2004 0:00,27.7,1,51.8,1,26,1,27.5,1
9/6/2004 0:15,27.6,1,51.2,1,26.1,1,27.5,1
9/6/2004 0:30,27.9,1,53.5,1,26,1,27.5,1
9/6/2004 0:45,28.1,1,55.5,1,26.1,1,27.5,1
9/6/2004 1:00,28.3,1,57.5,1,26,1,27.5,1
9/6/2004 1:15,28.5,1,59.3,1,25.9,1,27.5,1
9/6/2004 1:30,28.7,1,60.1,1,26,1,27.5,1
9/6/2004 1:45,28.9,1,61,1,26.1,1,27.5,1
9/6/2004 2:00,29,1,61.5,1,26.2,1,27.5,1
9/6/2004 2:15,29,1,62.4,1,26.5,1,27.5,1
9/6/2004 2:30,29,1,63.1,1,26.7,1,27.5,1
9/6/2004 2:45,29,1,63.8,1,26.7,1,27.5,1
9/6/2004 3:00,29,1,64.3,1,26.8,1,27.5,1
9/6/2004 3:15,29,1,64.5,1,26.8,1,27.5,1
9/6/2004 3:30,28.9,1,64.8,1,26.8,1,27.5,1
9/6/2004 3:45,28.9,1,65.1,1,26.8,1,27.6,1
9/6/2004 4:00,28.9,1,65.4,1,26.8,1,27.6,1
9/6/2004 4:15,28.9,1,65.6,1,26.8,1,27.6,1
9/6/2004 4:30,28.9,1,65.7,1,26.8,1,27.6,1
9/6/2004 4:45,28.9,1,65.9,1,26.8,1,27.6,1
9/6/2004 5:00,28.9,1,66,1,26.8,1,27.6,1
9/6/2004 5:15,28.9,1,66,1,26.8,1,27.6,1
9/6/2004 5:30,28.9,1,66.2,1,26.8,1,27.7,1
9/6/2004 5:45,28.9,1,66.2,1,26.8,1,27.7,1
9/6/2004 6:00,28.8,1,66.2,1,26.8,1,27.7,1
9/6/2004 6:15,28.8,1,66.3,1,26.9,1,27.7,1
9/6/2004 6:30,28.8,1,66.4,1,26.9,1,27.7,1
9/6/2004 6:45,28.8,1,66.5,1,27,1,27.7,1
9/6/2004 7:00,28.8,1,66.5,1,27.1,1,27.7,1
9/6/2004 7:15,28.9,1,66.6,1,27.1,1,27.7,1
9/6/2004 7:30,28.8,1,67.8,1,27.1,1,27.4,1
9/6/2004 7:45,28.7,1,67.7,1,27.1,1,26.9,1
9/6/2004 8:00,28.7,1,68.1,1,27.1,1,27,1
9/6/2004 8:15,28.8,1,68.6,1,27.1,1,27,1
9/6/2004 8:30,28.7,1,68.9,1,26.9,1,27,1
9/6/2004 8:45,28.7,1,69.5,1,26.8,1,27.1,1
9/6/2004 9:00,28.6,1,69.8,1,27.2,1,26.9,1
9/6/2004 9:15,28.7,1,69.8,1,27.5,1,26.9,1
9/6/2004 9:30,28.8,1,69.6,1,27.8,1,27,1
9/6/2004 9:45,28.8,1,69.4,1,28.1,1,27,1
9/6/2004 10:00,28.9,1,69.2,1,28.2,1,27,1
9/6/2004 10:15,28.9,1,69,1,28.3,1,27,1
9/6/2004 10:30,29,1,68.7,1,28.4,1,27,1
9/6/2004 10:45,29,1,68.2,1,28.7,1,27,1
9/6/2004 11:00,29.1,1,68.4,1,28.9,1,27.1,1
9/6/2004 11:15,29.2,1,68.6,1,29,1,27.1,1
9/6/2004 11:30,29.3,1,68.4,1,29.1,1,27.1,1
9/6/2004 11:45,29.4,1,68.3,1,29.2,1,27.1,1
9/6/2004 12:00,29.4,1,68.4,1,29.3,1,27.2,1
9/6/2004 12:15,29.5,1,68.3,1,29.4,1,27.2,1
9/6/2004 12:30,29.6,1,68.3,1,29.4,1,27.2,1
9/6/2004 12:45,29.7,1,68.4,1,29.5,1,27.2,1
9/6/2004 13:00,29.8,1,68.1,1,29.6,1,27.2,1
9/6/2004 13:15,29.6,1,64,1,29.7,1,27.7,1
9/6/2004 13:30,29.2,1,55.5,1,29.8,1,27.7,1
9/6/2004 13:45,29,1,54.8,1,29.8,1,27.7,1
9/6/2004 14:00,28.8,1,52.8,1,29.7,1,27.7,1
9/6/2004 14:15,28.6,1,50.8,1,29.6,1,27.7,1
9/6/2004 14:30,28.4,1,49,1,29.6,1,27.7,1
9/6/2004 14:45,28.5,1,50.5,1,29.5,1,27.7,1
9/6/2004 15:00,28.4,1,49.3,1,29.5,1,27.7,1
9/6/2004 15:15,28.2,1,48.9,1,29.4,1,27.7,1
9/6/2004 15:30,28.1,1,48.3,1,29.3,1,27.9,1
9/6/2004 15:45,28.3,1,52.4,1,29.3,1,27.8,1
9/6/2004 16:00,28.4,1,51.3,1,29.2,1,27.9,1
9/6/2004 16:15,28.1,1,48.1,1,29.1,1,27.8,1
9/6/2004 16:30,27.8,1,46,1,29.1,1,27.8,1
9/6/2004 16:45,27.8,1,47.6,1,29,1,27.9,1
9/6/2004 17:00,27.7,1,47.8,1,28.9,1,27.9,1
9/6/2004 17:15,27.9,1,53.8,1,28.8,1,27.9,1
9/6/2004 17:30,28.2,1,58.4,1,28.7,1,27.9,1
9/6/2004 17:45,28.5,1,61.3,1,28.6,1,27.3,1
9/6/2004 18:00,28.7,1,61.5,1,28.5,1,27.3,1
9/6/2004 18:15,28.5,1,60,1,28.4,1,27.3,1
9/6/2004 18:30,28.4,1,55.6,1,28.4,1,27.3,1
9/6/2004 18:45,28.2,1,53.9,1,28.3,1,27.3,1
9/6/2004 19:00,28.3,1,55,1,28.3,1,27.4,1
9/6/2004 19:15,28.2,1,55.4,1,28.2,1,27.4,1
9/6/2004 19:30,28.1,1,55.9,1,28.2,1,27.4,1
9/6/2004 19:45,28.1,1,59.2,1,28.1,1,27.3,1